Total_Precipitation_Accumulation
1.77 1.76 1.39 0.88 0.70 0.63 0.64 0.62 0.54 0.55 0.52 0.61 0.60 0.57 0.54 0.54 0.62 0.66 0.65 0.71 0.85 1.04 1.26 1.42 1.76 2.02 2.26 2.57 2.91 3.19 3.33 3.49 3.66 3.85 3.99 3.94 3.90 3.75 3.50 3.28 3.15 3.06 2.76 2.74
1.72 1.34 0.77 0.56 0.63 0.68 0.74 0.76 0.57 0.55 0.56 0.69 0.71 0.65 0.58 0.61 0.70 0.68 0.67 0.69 0.75 0.91 1.13 1.34 1.61 1.84 2.08 2.35 2.56 3.00 3.26 3.31 3.34 3.36 3.59 3.83 4.07 4.10 3.97 3.74 3.47 3.33 3.12 2.93
1.33 0.88 0.65 0.69 0.80 0.87 0.79 0.71 0.60 0.64 0.67 0.76 0.81 0.84 0.71 0.72 0.64 0.65 0.70 0.74 0.77 0.81 0.98 1.18 1.48 1.70 1.91 2.17 2.35 2.60 2.94 3.16 3.25 3.33 3.67 3.94 4.16 4.10 3.96 3.78 3.54 3.37 3.28 3.08
1.15 0.72 0.76 0.87 0.86 0.85 0.83 0.51 0.56 0.71 0.94 1.06 0.93 1.13 0.88 0.76 0.62 0.62 0.69 0.73 0.79 0.83 0.95 1.09 1.26 1.54 1.78 1.94 2.16 2.39 2.67 2.98 3.23 3.39 3.52 3.58 3.62 3.61 3.49 3.49 3.56 3.45 3.23 3.14
1.21 0.82 0.88 0.98 0.76 0.75 0.73 0.48 0.57 0.79 1.05 1.13 0.82 0.94 0.86 0.62 0.62 0.63 0.66 0.69 0.72 0.81 0.89 0.95 1.07 1.31 1.55 1.77 1.99 2.26 2.46 2.71 3.05 3.32 3.31 3.39 3.35 3.26 3.36 3.37 3.38 3.43 3.30 3.14
0.91 0.80 0.98 0.93 0.66 0.72 0.75 0.81 0.93 1.06 1.52 1.61 0.73 0.75 0.85 0.74 0.77 0.70 0.66 0.67 0.69 0.76 0.84 0.90 0.97 1.16 1.39 1.62 1.78 2.07 2.36 2.51 2.76 3.12 3.14 3.05 2.95 2.86 3.06 3.20 3.21 3.30 3.23 3.03
1.32 1.07 0.94 0.90 0.95 0.99 1.10 1.59 2.13 2.17 2.12 1.31 0.50 0.57 0.83 0.70 0.70 0.77 0.71 0.64 0.63 0.67 0.75 0.80 0.82 0.98 1.26 1.49 1.66 1.84 2.15 2.35 2.49 2.78 2.96 2.97 2.85 2.74 2.72 2.84 3.03 3.16 3.16 2.84
1.44 1.32 0.94 0.98 1.13 1.27 1.17 1.43 1.72 1.55 1.08 0.65 0.47 0.63 0.74 0.57 0.55 0.58 0.58 0.55 0.55 0.61 0.67 0.74 0.78 0.88 1.09 1.34 1.54 1.68 1.87 2.13 2.27 2.44 2.64 2.86 2.79 2.69 2.58 2.53 2.72 2.91 3.01 2.84
1.14 1.09 0.68 0.71 0.76 0.89 1.15 1.19 1.05 1.40 0.97 0.70 0.65 0.67 0.58 0.40 0.41 0.45 0.49 0.47 0.52 0.59 0.64 0.73 0.78 0.85 0.96 1.15 1.37 1.55 1.66 1.90 2.04 2.18 2.40 2.63 2.60 2.46 2.36 2.28 2.35 2.52 2.67 2.68
1.10 1.16 0.71 0.68 0.90 0.94 1.00 1.01 1.27 1.92 1.61 0.99 0.65 0.57 0.65 0.51 0.49 0.49 0.50 0.53 0.57 0.59 0.59 0.65 0.76 0.84 0.92 1.06 1.21 1.41 1.59 1.79 1.91 2.00 2.19 2.33 2.38 2.30 2.18 2.11 2.09 2.16 2.24 2.30
0.97 1.30 0.96 0.90 1.16 0.98 0.97 1.17 1.42 1.56 1.35 1.23 0.83 0.72 0.68 0.59 0.56 0.55 0.56 0.58 0.60 0.60 0.61 0.64 0.70 0.82 0.93 1.06 1.19 1.34 1.51 1.67 1.82 1.90 1.95 2.01 2.09 2.14 2.06 2.02 1.92 1.88 1.96 2.05
0.88 1.37 1.10 0.76 0.68 0.59 0.79 0.96 1.21 1.70 1.31 1.00 0.91 0.79 0.53 0.48 0.52 0.54 0.54 0.59 0.57 0.55 0.58 0.63 0.68 0.79 0.90 1.01 1.16 1.34 1.43 1.61 1.70 1.75 1.81 1.81 1.87 1.95 1.94 1.79 1.72 1.69 1.67 1.78
1.20 1.74 1.55 1.07 0.97 0.90 0.93 0.80 0.92 1.37 1.68 1.28 1.08 0.81 0.48 0.38 0.42 0.47 0.52 0.57 0.55 0.53 0.53 0.56 0.63 0.73 0.87 0.97 1.09 1.22 1.30 1.45 1.61 1.63 1.70 1.73 1.76 1.87 1.92 1.79 1.63 1.59 1.54 1.55
1.58 1.80 1.44 1.24 1.03 1.01 0.97 0.73 0.82 1.59 2.02 1.19 0.75 0.63 0.50 0.47 0.50 0.52 0.56 0.60 0.58 0.55 0.54 0.56 0.62 0.70 0.78 0.89 1.01 1.10 1.16 1.26 1.38 1.47 1.58 1.65 1.66 1.72 1.85 1.84 1.63 1.56 1.52 1.49
1.38 1.60 0.96 0.68 0.57 0.71 0.78 0.71 0.79 1.21 1.20 1.13 0.70 0.59 0.66 0.66 0.69 0.67 0.63 0.59 0.55 0.53 0.53 0.55 0.63 0.71 0.72 0.77 0.89 0.97 0.99 1.07 1.17 1.24 1.35 1.53 1.59 1.63 1.76 1.83 1.78 1.69 1.63 1.55
1.05 1.36 0.98 0.71 0.48 0.58 0.67 0.63 0.68 0.78 0.77 0.79 0.66 0.70 0.64 0.63 0.59 0.60 0.61 0.59 0.60 0.57 0.55 0.52 0.58 0.67 0.69 0.73 0.83 0.91 0.94 0.97 1.04 1.13 1.19 1.31 1.38 1.49 1.64 1.75 1.73 1.71 1.72 1.69
0.88 1.14 1.37 0.99 0.55 0.75 0.97 0.83 0.79 0.77 0.68 0.68 0.79 0.74 0.56 0.55 0.57 0.63 0.61 0.57 0.59 0.56 0.50 0.49 0.53 0.62 0.68 0.70 0.73 0.82 0.91 0.93 1.00 1.09 1.14 1.18 1.23 1.27 1.41 1.56 1.71 1.78 1.78 1.77
0.75 1.03 1.57 1.20 0.87 1.17 0.94 0.65 0.63 0.67 0.68 0.66 0.68 0.59 0.56 0.59 0.61 0.62 0.62 0.57 0.51 0.49 0.45 0.44 0.48 0.54 0.64 0.68 0.66 0.68 0.73 0.81 0.89 0.97 1.00 1.05 1.16 1.23 1.30 1.47 1.67 1.84 1.93 1.94
0.46 1.01 1.67 1.44 1.04 0.70 0.46 0.39 0.54 0.67 0.70 0.62 0.56 0.47 0.44 0.45 0.48 0.54 0.56 0.55 0.52 0.50 0.48 0.45 0.46 0.50 0.55 0.61 0.64 0.64 0.67 0.75 0.82 0.91 0.94 0.97 1.08 1.26 1.40 1.55 1.71 1.83 1.99 2.06
0.45 0.89 1.67 1.52 1.28 0.76 0.47 0.26 0.30 0.54 0.82 0.51 0.45 0.48 0.45 0.44 0.58 0.57 0.51 0.50 0.46 0.43 0.43 0.44 0.44 0.44 0.47 0.54 0.59 0.63 0.69 0.76 0.86 0.97 1.06 1.10 1.19 1.38 1.51 1.63 1.70 1.72 1.80 1.87
0.68 1.08 1.40 1.23 1.23 0.70 0.41 0.23 0.24 0.75 0.93 0.47 0.42 0.48 0.51 0.62 0.72 0.60 0.49 0.47 0.44 0.42 0.43 0.44 0.47 0.51 0.55 0.60 0.66 0.75 0.79 0.92 1.03 1.08 1.17 1.26 1.29 1.33 1.37 1.42 1.43 1.38 1.34 1.37
0.62 0.86 0.89 0.94 1.26 0.88 0.41 0.33 0.66 0.90 0.58 0.47 0.43 0.44 0.49 0.52 0.50 0.47 0.45 0.43 0.42 0.41 0.41 0.45 0.53 0.63 0.69 0.75 0.86 0.93 0.95 1.01 1.07 1.14 1.17 1.20 1.23 1.26 1.25 1.23 1.18 1.10 1.06 1.08
0.59 0.80 0.90 0.92 0.98 0.80 0.60 0.66 0.72 0.63 0.58 0.51 0.51 0.47 0.48 0.49 0.49 0.46 0.45 0.42 0.40 0.39 0.41 0.45 0.51 0.56 0.62 0.69 0.80 0.89 0.88 0.88 0.94 1.02 1.06 1.08 1.06 1.07 1.10 1.08 1.06 1.04 1.00 1.00
0.53 0.47 0.64 0.72 0.66 0.57 0.53 0.47 0.46 0.48 0.55 0.53 0.51 0.49 0.46 0.49 0.46 0.44 0.41 0.41 0.42 0.42 0.43 0.44 0.45 0.47 0.50 0.53 0.61 0.70 0.69 0.71 0.76 0.84 0.89 0.93 0.96 0.97 0.98 0.98 0.98 1.02 1.04 1.02
0.55 0.53 0.63 0.67 0.53 0.44 0.41 0.40 0.43 0.41 0.38 0.38 0.38 0.41 0.44 0.45 0.45 0.44 0.43 0.42 0.43 0.45 0.45 0.46 0.48 0.51 0.54 0.54 0.56 0.60 0.63 0.68 0.73 0.74 0.77 0.80 0.84 0.90 0.94 0.96 0.99 1.03 1.06 1.15
0.56 0.67 0.82 0.77 0.53 0.59 0.52 0.41 0.38 0.37 0.35 0.33 0.32 0.34 0.35 0.37 0.42 0.43 0.45 0.45 0.44 0.45 0.43 0.42 0.44 0.49 0.53 0.55 0.56 0.58 0.61 0.67 0.74 0.77 0.76 0.77 0.82 0.87 0.89 0.91 0.97 1.05 1.06 1.14